This is the latest recevied weather packets stored in our database for station/object DG1ROH. If no packets are shown the sender has not sent any weather packets the latest 10 day(s).
| Time | Temp. | Humidity | Pressure | Rain* | Wind** | Luminosity | Snow |
|---|---|---|---|---|---|---|---|
| 1778339464 | 16.11° C | 60% | 1019.2 hPa | 0 mm | - | 155 W/m² | - |
| 1778339344 | 16.11° C | 62% | 1019.2 hPa | 0 mm | - | 160 W/m² | - |
| 1778339225 | 15.56° C | 60% | 1019.2 hPa | 0 mm | - | 162 W/m² | - |
| 1778339104 | 15.56° C | 60% | 1019.2 hPa | 0 mm | - | 169 W/m² | - |
| 1778338985 | 15.56° C | 62% | 1019.3 hPa | 0 mm | - | 174 W/m² | - |
| 1778338865 | 15.56° C | 59% | 1019.2 hPa | 0 mm | - | 174 W/m² | - |
| 1778338744 | 15.56° C | 59% | 1019.2 hPa | 0 mm | - | 167 W/m² | - |
| 1778338625 | 15.56° C | 59% | 1019.3 hPa | 0 mm | - | 160 W/m² | - |
| 1778338505 | 15.56° C | 59% | 1019.2 hPa | 0 mm | - | 155 W/m² | - |
| 1778338385 | 16.11° C | 59% | 1019.2 hPa | 0 mm | - | 151 W/m² | - |
| 1778338265 | 16.11° C | 62% | 1019.2 hPa | 0 mm | - | 148 W/m² | - |
| 1778338144 | 16.11° C | 62% | 1019.2 hPa | 0 mm | - | 142 W/m² | - |
| 1778338025 | 15.56° C | 63% | 1019.2 hPa | 0 mm | - | 135 W/m² | - |
| 1778337906 | 15.56° C | 60% | 1019.3 hPa | 0 mm | - | 132 W/m² | - |
| 1778337785 | 15.56° C | 59% | 1019.2 hPa | 0 mm | - | 130 W/m² | - |
| 1778337665 | 16.11° C | 59% | 1019.2 hPa | 0 mm | - | 132 W/m² | - |
| 1778337545 | 16.11° C | 59% | 1019.2 hPa | 0 mm | - | 134 W/m² | - |
| 1778337424 | 16.11° C | 62% | 1019.3 hPa | 0 mm | - | 135 W/m² | - |
| 1778336945 | 16.11° C | 58% | 1019.3 hPa | 0 mm | - | 186 W/m² | - |
| 1778336825 | 16.11° C | 62% | 1019.2 hPa | 0 mm | - | 260 W/m² | - |
| 1778336706 | 16.11° C | 60% | 1019.3 hPa | 0 mm | - | 218 W/m² | - |
| 1778336585 | 16.11° C | 58% | 1019.3 hPa | 0 mm | - | 218 W/m² | - |
| 1778336464 | 16.11° C | 59% | 1019.2 hPa | 0 mm | - | 223 W/m² | - |
| 1778336345 | 16.11° C | 59% | 1019.2 hPa | 0 mm | - | 227 W/m² | - |
| 1778336225 | 16.11° C | 61% | 1019.3 hPa | 0 mm | - | 229 W/m² | - |
* Rain latest hour (hover to see other rain measurements)
** Current wind speed in m/s (hover to see current wind gust speed)